Jackson, MI

11:13 PM EDT on August 17, 2019 (GMT -0400)
Jackson County-Reynolds

Weather History for KJXN - May, 2019

Change the Weather History Date:

Saturday, May 25, 2019

  Actual Average Record
Temperature  
Mean Temperature 72 °F 60 °F  
Max Temperature 83 °F 72 °F 92 °F (1977)
Min Temperature 60 °F 49 °F 31 °F (1992)
Degree Days  
Heating Degree Days 0 6  
Month to date heating degree days 233 227  
Since 1 July heating degree days 6630 6573  
Cooling Degree Days 7 2  
Month to date cooling degree days 8 20  
Year to date cooling degree days 8 26  
Growing Degree Days 21 (Base 50)    
Moisture  
Dew Point 62 °F    
Average Humidity 79    
Maximum Humidity 100    
Minimum Humidity 58    
Precipitation  
Precipitation 0.19 in 0.11 in 1.84 in (2011)
Month to date precipitation 2.92 2.65  
Year to date precipitation 11.16 9.94  
Sea Level Pressure  
Sea Level Pressure 29.93 in    
Wind  
Wind Speed 10 mph (SSW)    
Max Wind Speed 23 mph    
Max Gust Speed 36 mph    
Visibility 10 miles    
Events Rain    
T = Trace of Precipitation, MM = Missing Value Source: NWS Daily Summary

Daily Weather History Graph

Daily Weather History Graph

Search for Another Location

Airport or City:

Astronomy

May. 25, 2019 Rise Set
Actual Time 6:08 AM EDT 9:01 PM EDT
Civil Twilight 5:35 AM EDT 9:35 PM EDT
Nautical Twilight 4:53 AM EDT 10:17 PM EDT
Astronomical Twilight 4:04 AM EDT 11:06 PM EDT
Moon 2:01 AM EDT (5/25) 12:08 PM EDT (5/25)
Length of Visible Light 15h 59m
Length of Day
14h 53m
Waning Gibbous, 60% of the Moon is Illuminated
May 25
Waning Gibbous
May 26
Last Quarter
Jun 3
New
Jun 10
First Quarter
Jun 17
Full

Hourly Weather History & Observations

Time (EDT) Temp. Heat Index Dew Point Humidity Pressure Visibility Wind Dir Wind Speed Gust Speed Precip Events Conditions
12:56 AM 60.1 °F - 50.0 °F 69% 29.99 in 10.0 mi ESE 12.7 mph 20.7 mph N/A   Clear
1:56 AM 61.0 °F - 51.1 °F 70% 29.97 in 10.0 mi ESE 11.5 mph - N/A   Scattered Clouds
2:56 AM 61.0 °F - 54.0 °F 78% 29.96 in 10.0 mi ESE 10.4 mph - N/A   Mostly Cloudy
3:56 AM 61.0 °F - 55.0 °F 81% 29.94 in 10.0 mi SE 8.1 mph - N/A   Overcast
4:56 AM 62.1 °F - 57.0 °F 84% 29.92 in 10.0 mi SE 8.1 mph - N/A   Clear
5:56 AM 61.0 °F - 59.0 °F 93% 29.92 in 10.0 mi SSE 5.8 mph - N/A   Mostly Cloudy
6:56 AM 64.0 °F - 61.0 °F 90% 29.91 in 10.0 mi SSE 4.6 mph - N/A   Clear
7:56 AM 71.1 °F - 64.9 °F 81% 29.91 in 10.0 mi SSW 13.8 mph 25.3 mph N/A   Clear
8:56 AM 73.9 °F - 66.0 °F 76% 29.90 in 10.0 mi SSW 15.0 mph 23.0 mph N/A   Clear
9:56 AM 77.0 °F - 68.0 °F 74% 29.91 in 10.0 mi SW 16.1 mph 27.6 mph N/A   Partly Cloudy
10:56 AM 77.0 °F - 68.0 °F 74% 29.91 in 10.0 mi SW 16.1 mph 26.5 mph N/A   Scattered Clouds
11:56 AM 79.0 °F - 66.9 °F 66% 29.91 in 10.0 mi SSW 17.3 mph 25.3 mph N/A   Scattered Clouds
12:56 PM 82.0 °F 84.1 °F 66.0 °F 58% 29.91 in 10.0 mi SW 16.1 mph 21.9 mph N/A   Partly Cloudy
1:56 PM 81.0 °F 82.5 °F 64.0 °F 56% 29.90 in 10.0 mi WSW 11.5 mph 25.3 mph N/A   Mostly Cloudy
2:32 PM 71.1 °F - 64.9 °F 81% 29.93 in 1.2 mi West 16.1 mph 35.7 mph 0.15 in Rain Heavy Rain
2:49 PM 70.0 °F - 66.9 °F 90% 29.93 in 10.0 mi SW 9.2 mph - 0.19 in Rain Light Rain
2:56 PM 71.1 °F - 68.0 °F 90% 29.92 in 10.0 mi SW 8.1 mph - 0.19 in Rain Light Rain
3:56 PM 73.4 °F - 66.2 °F 78% 29.92 in 10.0 mi SW 13.8 mph 27.6 mph N/A   Scattered Clouds
4:56 PM 75.9 °F - 66.0 °F 71% 29.91 in 10.0 mi WSW 17.3 mph 27.6 mph 0.00 in   Scattered Clouds
5:56 PM 77.0 °F - 66.0 °F 69% 29.92 in 10.0 mi SW 15.0 mph - N/A   Mostly Cloudy
6:56 PM 77.0 °F - 64.9 °F 66% 29.93 in 10.0 mi WSW 15.0 mph 25.3 mph N/A   Partly Cloudy
7:56 PM 77.0 °F - 62.1 °F 60% 29.94 in 10.0 mi WSW 12.7 mph 28.8 mph N/A   Clear
8:56 PM 71.1 °F - 62.1 °F 73% 29.94 in 10.0 mi WSW 5.8 mph - N/A   Clear
9:56 PM 70.0 °F - 62.1 °F 76% 29.94 in 10.0 mi South 4.6 mph - N/A   Clear
10:56 PM 64.9 °F - 62.1 °F 90% 29.95 in 10.0 mi South 4.6 mph - N/A   Clear
11:56 PM 63.0 °F - 62.1 °F 97% 29.94 in 10.0 mi SSW 4.6 mph - N/A   Clear